TimeEST,TemperatureF,Dew PointF,Humidity,Sea Level PressureIn,VisibilityMPH,Wind Direction,Wind SpeedMPH,Gust SpeedMPH,PrecipitationIn,Events,Conditions,WindDirDegrees,DateUTC
12:15 AM,33.8,21.2,60,29.79,10.0,West,10.4,19.6,N/A,,Clear,260,2012-12-22 05:15:00
12:35 AM,33.8,21.2,60,29.78,10.0,WSW,6.9,-,N/A,,Clear,250,2012-12-22 05:35:00
12:55 AM,33.8,21.2,60,29.79,10.0,West,6.9,16.1,N/A,,Clear,260,2012-12-22 05:55:00
1:15 AM,33.8,21.2,60,29.79,10.0,West,9.2,17.3,N/A,,Clear,260,2012-12-22 06:15:00
1:35 AM,33.8,21.2,60,29.80,10.0,WSW,8.1,-,N/A,,Clear,240,2012-12-22 06:35:00
1:55 AM,33.8,21.2,60,29.81,10.0,West,11.5,16.1,N/A,,Clear,260,2012-12-22 06:55:00
2:15 AM,33.8,21.2,60,29.81,10.0,West,9.2,17.3,N/A,,Clear,260,2012-12-22 07:15:00
2:35 AM,33.8,21.2,60,29.82,10.0,West,10.4,16.1,N/A,,Clear,260,2012-12-22 07:35:00
2:55 AM,33.8,21.2,60,29.83,10.0,WSW,9.2,-,N/A,,Clear,240,2012-12-22 07:55:00
3:15 AM,33.8,21.2,60,29.83,10.0,West,11.5,18.4,N/A,,Clear,260,2012-12-22 08:15:00
3:35 AM,33.8,21.2,60,29.84,10.0,West,9.2,-,N/A,,Clear,260,2012-12-22 08:35:00
4:15 AM,33.8,21.2,60,29.84,10.0,WSW,6.9,-,N/A,,Clear,250,2012-12-22 09:15:00
4:35 AM,33.8,23.0,65,29.85,10.0,West,11.5,17.3,N/A,,Clear,260,2012-12-22 09:35:00
4:55 AM,33.8,23.0,65,29.86,10.0,West,10.4,16.1,N/A,,Clear,270,2012-12-22 09:55:00
5:15 AM,33.8,23.0,65,29.87,10.0,WSW,5.8,17.3,N/A,,Scattered Clouds,250,2012-12-22 10:15:00
5:35 AM,33.8,23.0,65,29.87,10.0,West,9.2,-,N/A,,Scattered Clouds,270,2012-12-22 10:35:00
5:55 AM,33.8,23.0,65,29.89,10.0,West,8.1,-,N/A,,Clear,260,2012-12-22 10:55:00
6:15 AM,33.8,21.2,60,29.90,10.0,West,6.9,-,N/A,,Clear,270,2012-12-22 11:15:00
6:35 AM,35.6,23.0,60,29.91,10.0,West,9.2,18.4,N/A,,Clear,270,2012-12-22 11:35:00
7:15 AM,33.8,21.2,60,29.93,10.0,West,9.2,17.3,N/A,,Clear,270,2012-12-22 12:15:00
7:35 AM,33.8,21.2,60,29.95,10.0,West,8.1,18.4,N/A,,Clear,260,2012-12-22 12:35:00
7:55 AM,33.8,21.2,60,29.96,10.0,West,6.9,-,N/A,,Clear,270,2012-12-22 12:55:00
8:15 AM,35.6,23.0,60,29.96,10.0,West,6.9,-,N/A,,Clear,270,2012-12-22 13:15:00
8:35 AM,39.2,24.8,56,29.97,10.0,West,8.1,-,N/A,,Clear,270,2012-12-22 13:35:00
8:55 AM,39.2,24.8,56,29.98,10.0,WNW,6.9,16.1,N/A,,Clear,290,2012-12-22 13:55:00
9:15 AM,42.8,24.8,49,29.99,10.0,West,9.2,19.6,N/A,,Clear,280,2012-12-22 14:15:00
9:35 AM,42.8,24.8,49,30.00,10.0,WNW,8.1,19.6,N/A,,Clear,290,2012-12-22 14:35:00
9:55 AM,44.6,24.8,46,30.01,10.0,WNW,10.4,17.3,N/A,,Clear,290,2012-12-22 14:55:00
10:15 AM,44.6,24.8,46,30.02,10.0,WNW,9.2,17.3,N/A,,Clear,300,2012-12-22 15:15:00
10:35 AM,44.6,23.0,43,30.01,10.0,WNW,10.4,25.3,N/A,,Clear,290,2012-12-22 15:35:00
10:55 AM,44.6,23.0,43,30.01,10.0,WNW,10.4,19.6,N/A,,Clear,290,2012-12-22 15:55:00
11:15 AM,46.4,24.8,43,30.01,10.0,WNW,11.5,19.6,N/A,,Clear,290,2012-12-22 16:15:00
11:35 AM,46.4,23.0,40,30.01,10.0,NW,11.5,21.9,N/A,,Clear,310,2012-12-22 16:35:00
11:55 AM,46.4,23.0,40,30.00,10.0,WNW,9.2,19.6,N/A,,Clear,300,2012-12-22 16:55:00
12:15 PM,48.2,24.8,40,29.99,10.0,NW,6.9,18.4,N/A,,Clear,310,2012-12-22 17:15:00
12:35 PM,48.2,24.8,40,29.99,10.0,WNW,8.1,-,N/A,,Clear,300,2012-12-22 17:35:00
12:55 PM,48.2,23.0,37,29.98,10.0,WNW,11.5,20.7,N/A,,Clear,290,2012-12-22 17:55:00
1:15 PM,48.2,23.0,37,29.98,10.0,WNW,13.8,21.9,N/A,,Clear,300,2012-12-22 18:15:00
1:35 PM,48.2,23.0,37,29.99,10.0,WNW,9.2,18.4,N/A,,Clear,290,2012-12-22 18:35:00
1:55 PM,50.0,24.8,37,29.98,10.0,West,11.5,20.7,N/A,,Clear,260,2012-12-22 18:55:00
2:15 PM,50.0,24.8,37,29.99,10.0,WNW,6.9,-,N/A,,Clear,300,2012-12-22 19:15:00
2:35 PM,51.8,24.8,35,29.99,10.0,West,12.7,-,N/A,,Clear,260,2012-12-22 19:35:00
2:55 PM,48.2,23.0,37,29.99,10.0,West,8.1,-,N/A,,Clear,260,2012-12-22 19:55:00
3:15 PM,48.2,23.0,37,29.99,10.0,WSW,9.2,-,N/A,,Clear,250,2012-12-22 20:15:00
3:35 PM,48.2,21.2,34,30.00,10.0,West,8.1,21.9,N/A,,Clear,280,2012-12-22 20:35:00
3:55 PM,48.2,21.2,34,30.00,10.0,West,10.4,-,N/A,,Clear,260,2012-12-22 20:55:00
4:15 PM,46.4,21.2,37,30.01,10.0,West,10.4,-,N/A,,Clear,260,2012-12-22 21:15:00
4:35 PM,46.4,21.2,37,30.02,10.0,WSW,6.9,16.1,N/A,,Clear,250,2012-12-22 21:35:00
4:55 PM,44.6,21.2,39,30.04,10.0,WSW,3.5,-,N/A,,Clear,240,2012-12-22 21:55:00
5:15 PM,41.0,21.2,45,30.05,10.0,West,3.5,-,N/A,,Clear,270,2012-12-22 22:15:00
5:35 PM,41.0,19.4,42,30.05,10.0,WSW,5.8,-,N/A,,Clear,250,2012-12-22 22:35:00
5:55 PM,41.0,21.2,45,30.06,10.0,West,4.6,-,N/A,,Clear,260,2012-12-22 22:55:00
6:15 PM,39.2,19.4,45,30.07,10.0,SW,5.8,-,N/A,,Clear,230,2012-12-22 23:15:00
6:35 PM,39.2,19.4,45,30.07,10.0,WSW,4.6,-,N/A,,Clear,240,2012-12-22 23:35:00
6:55 PM,39.2,21.2,49,30.08,10.0,West,6.9,-,N/A,,Clear,280,2012-12-22 23:55:00
7:15 PM,39.2,19.4,45,30.08,10.0,West,5.8,-,N/A,,Clear,270,2012-12-23 00:15:00
7:35 PM,39.2,19.4,45,30.08,10.0,West,3.5,-,N/A,,Clear,270,2012-12-23 00:35:00
7:55 PM,39.2,19.4,45,30.09,10.0,West,4.6,-,N/A,,Clear,270,2012-12-23 00:55:00
8:15 PM,37.4,19.4,48,30.09,10.0,West,3.5,-,N/A,,Clear,270,2012-12-23 01:15:00
8:35 PM,37.4,19.4,48,30.10,10.0,West,8.1,-,N/A,,Clear,270,2012-12-23 01:35:00
8:55 PM,39.2,19.4,45,30.10,10.0,West,5.8,-,N/A,,Clear,270,2012-12-23 01:55:00
9:15 PM,39.2,17.6,42,30.10,10.0,West,4.6,-,N/A,,Clear,280,2012-12-23 02:15:00
9:35 PM,37.4,17.6,45,30.10,10.0,West,4.6,-,N/A,,Clear,270,2012-12-23 02:35:00
9:55 PM,37.4,17.6,45,30.10,10.0,West,3.5,-,N/A,,Clear,280,2012-12-23 02:55:00
10:15 PM,37.4,17.6,45,30.10,10.0,WNW,4.6,-,N/A,,Clear,290,2012-12-23 03:15:00
10:35 PM,37.4,17.6,45,30.10,10.0,WNW,4.6,-,N/A,,Clear,290,2012-12-23 03:35:00
10:55 PM,37.4,17.6,45,30.11,10.0,West,5.8,-,N/A,,Clear,280,2012-12-23 03:55:00
11:15 PM,37.4,17.6,45,30.11,10.0,West,6.9,-,N/A,,Clear,280,2012-12-23 04:15:00
11:35 PM,37.4,17.6,45,30.11,10.0,WNW,6.9,-,N/A,,Clear,300,2012-12-23 04:35:00
11:55 PM,37.4,17.6,45,30.11,10.0,West,8.1,-,N/A,,Clear,280,2012-12-23 04:55:00